Location: Unspecified
(49.9820°N, 20.4363°E)
Time: 05:58:08
(UTC+02:00)

Vanguard 3 - All Passes

Search period start: 14 May 2026 00:00
Search period end: 24 May 2026 00:00
Orbit: 507 x 3205 km, 33.4° (Epoch: 13 May)

Date Brightness Start Highest point End Pass type
(mag) Time Alt. Az. Time Alt. Az. Time Alt. Az.
14 May - 11:38:00 10° SSE 11:46:16 15° SE 11:54:46 10° ESE daylight
14 May - 13:42:40 10° SSW 13:58:10 33° SSE 14:12:49 10° E daylight
14 May - 15:54:00 10° WSW 16:11:31 43° S 16:25:30 10° ESE daylight
14 May - 18:08:30 10° WSW 18:24:27 38° SSW 18:35:45 10° SE daylight
14 May - 20:25:46 10° W 20:35:18 19° SW 20:42:32 10° S daylight
15 May - 12:22:06 10° S 12:34:55 24° SE 12:48:10 10° E daylight
15 May - 14:30:49 10° SW 14:47:40 40° SSE 15:02:54 10° ESE daylight
15 May - 16:43:43 10° WSW 17:01:11 44° S 17:14:34 10° ESE daylight
15 May - 18:59:16 10° W 19:13:25 30° SSW 19:23:36 10° SSE daylight
15 May - 21:21:56 10° WSW 21:23:14 10° SW 21:24:30 10° SW visible
16 May - 11:04:36 10° SSE 11:12:21 14° SE 11:20:35 10° ESE daylight
16 May - 13:08:54 10° SSW 13:23:59 33° SSE 13:39:16 10° E daylight
16 May - 15:19:49 10° WSW 15:37:22 44° S 15:52:29 10° ESE daylight
16 May - 17:33:55 10° WSW 17:50:38 40° SSW 18:03:09 10° SE daylight
16 May - 19:50:53 10° W 20:01:55 21° SW 20:10:22 10° S daylight
17 May - 11:48:39 10° S 12:00:51 24° SE 12:14:11 10° E daylight
17 May - 13:56:59 10° SW 14:13:25 41° SSE 14:29:29 10° ESE daylight
17 May - 16:09:26 10° WSW 16:27:05 45° S 16:41:39 10° ESE daylight
17 May - 18:24:36 10° W 18:39:43 32° SSW 18:51:05 10° SSE daylight
17 May - 20:45:14 10° WSW 20:49:58 12° SW 20:54:08 10° SSW visible
18 May - 10:31:35 10° SSE 10:38:30 14° SE 10:46:02 10° ESE daylight
18 May - 12:35:25 10° SSW 12:49:47 33° SSE 13:05:27 10° E daylight
18 May - 14:45:53 10° WSW 15:03:06 45° S 15:19:13 10° ESE daylight
18 May - 16:59:30 10° WSW 17:16:39 41° SSW 17:30:21 10° SE daylight
18 May - 19:16:04 10° W 19:28:21 23° SW 19:37:58 10° S daylight
19 May - 11:15:29 10° S 11:26:50 23° SE 11:39:56 10° E daylight
19 May - 13:23:25 10° SW 13:39:08 41° SSE 13:55:49 10° ESE daylight
19 May - 15:35:22 10° WSW 15:52:52 45° S 16:08:30 10° ESE daylight
19 May - 17:50:03 10° W 18:05:51 34° SSW 18:18:22 10° SSE daylight
19 May - 20:09:48 10° WSW 20:16:30 14° SW 20:22:20 10° SSW daylight
20 May - 09:58:59 10° SSE 10:04:45 13° SE 10:11:06 10° ESE daylight
20 May - 12:02:11 10° SSW 12:15:39 33° SSE 12:31:22 10° E daylight
20 May - 14:12:12 10° WSW 14:28:47 45° S 14:45:41 10° ESE daylight
20 May - 16:25:18 10° WSW 16:42:30 42° SSW 16:57:18 10° SE daylight
20 May - 18:41:23 10° W 18:54:36 24° SW 19:05:20 10° S daylight
21 May - 10:42:35 10° S 10:52:57 22° SE 11:05:27 10° E daylight
21 May - 12:50:06 10° SW 13:04:54 40° SSE 13:21:54 10° E daylight
21 May - 15:01:33 10° WSW 15:18:34 46° S 15:35:07 10° ESE daylight
21 May - 17:15:43 10° W 17:31:49 34° SSW 17:45:25 10° SSE daylight
21 May - 19:34:43 10° WSW 19:42:52 15° SW 19:50:01 10° SSW daylight
22 May - 09:26:57 10° SE 09:31:07 12° SE 09:35:42 10° ESE daylight
22 May - 11:29:12 10° SSW 11:41:36 32° SSE 11:57:03 10° E daylight
22 May - 13:38:46 10° WSW 13:54:29 45° S 14:11:53 10° ESE daylight
22 May - 15:51:20 10° WSW 16:08:16 42° SSW 16:24:01 10° SE daylight
22 May - 18:06:54 10° W 18:20:42 25° SW 18:32:27 10° S daylight
23 May - 10:09:55 10° S 10:19:11 21° SE 10:30:45 10° E daylight
23 May - 12:17:01 10° SW 12:30:44 39° SSE 12:47:43 10° E daylight
23 May - 14:28:00 10° WSW 14:44:15 46° S 15:01:27 10° ESE daylight
23 May - 16:41:36 10° W 16:57:41 35° SSW 17:12:13 10° SSE daylight
23 May - 18:59:54 10° WSW 19:09:08 16° SW 19:17:20 10° SSW daylight
